User: anonymous
Location: Unspecified
(0.0000°N, 0.0000°E)
Time: 04:40:35
(UTC+02:00)
Language:

Cosmos 1733 Rocket - Orbit

View from above orbital plane
View from above orbital plane
View from above satellite
View from above satellite

Ground track
Ground track

The orbit data is extracted from the following two-line orbital elements,

1 16612U 86018B   14112.66120523  .00000634  00000-0  73992-4 0  8832
2 16612 082.5147 296.4404 0017280 357.3016 049.5150 14.83530418420688
Epoch (UTC): 22 April 2014 15:52:08
Eccentricity: 0.0017280
inclination: 82.5147°
perigee height: 606 km
apogee height: 630 km
right ascension of ascending node: 296.4404°
argument of perigee: 357.3016°
revolutions per day: 14.83530418
mean anomaly at epoch: 49.5150°
orbit number at epoch: 42068

The dashed part of the orbit path shows where the satellite is in the earth's shadow,  

DLR